Starlink 32874

operational
NORAD ID: 62954 Int'l Des: 2025-029 Owner: SPXS Country: US Constellation: starlink
LEOCIRCULAR

关于 Starlink 32874

正在加载描述...

实时位置

正在加载3D地球...

即将过境

高度历史

Altitude vs Time

uPlot chart will show altitude changes over time

两行轨道根数

1 62954U 25029G 25353.69217781 .00014497 00000-0 50059-3 0 9990
2 62954 53.1597 241.6237 0001515 86.7965 273.3209 15.30201796 49111
Epoch: Dec 19, 2025 • Age: 11 hours

当前状态

高度 480.7 km
速度 7.63 km/s
星下点 53.16°N, 175.02°E
发射日期 Feb 11, 2025
运行时间 0.8 years
类型 internet

技术详情

分类 Payload
质量 730.00 kg
干质量 700.00 kg
总质量 730.00 kg
长度 0.30 m
直径 4.10 m
跨度 29.00 m
形状 Box + pan
制造商 SPXS
平台类型 Starlink V2M
阶段状态 In Orbit
所有者/国家 SPXS/US

大型星座

Loading constellations...